This demonstration page uses our WeatherBlox Daily Observations layout. Learn more.

Left ArrowRight Arrow

Hourly Observations for December 18, 2021

Temp ( °F °C ) Dew Point ( °F °C ) Humidity (%) Winds ( mph kmh ) Pressure ( in mb ) Visibility ( mi km ) Precip ( " mm )
12:56 am 00:56 Cloudy 24 -4.4 17 -8.3 75 75 NNW 24 39 30.29 1026 10 16 0.00 0.00
1:56 am 01:56 Windy with Snow Likely 23 -5 16 -8.9 74 74 NNW 25 41 30.31 1026 9 14 0.00 0.00
2:56 am 02:56 Windy with Snow Likely 20 -6.7 13 -10.6 74 74 NNW 21 33 30.35 1028 9 14 0.00 0.00
3:43 am 03:43 Partly Cloudy 18 -8 10 -12 73 73 NNW 17 28 30.46 1032 10 16 0.00 0.00
3:56 am 03:56 Clear 17 -8.3 10 -12.2 74 74 NNW 20 31 30.37 1028 10 16 0.00 0.00
4:56 am 04:56 Clear 15 -9.4 9 -12.8 77 77 NNW 9 15 30.40 1029 10 16 0.00 0.00
5:56 am 05:56 Clear 14 -10 8 -13.3 77 77 NNW 9 15 30.41 1030 10 16 0.00 0.00
6:56 am 06:56 Clear 12 -11.1 5 -15 73 73 NNW 17 28 30.44 1031 10 16 0.00 0.00
7:56 am 07:56 Sunny 11 -11.7 4 -15.6 73 73 NNW 7 11 30.47 1032 10 16 0.00 0.00
8:56 am 08:56 Sunny 12 -11.1 3 -16.1 67 67 NNW 17 28 30.48 1032 10 16 0.00 0.00
9:56 am 09:56 Sunny 13 -10.6 3 -16.1 64 64 N 16 26 30.48 1032 10 16 0.00 0.00
10:56 am 10:56 Sunny 16 -8.9 5 -15 62 62 N 15 24 30.49 1033 10 16 0.00 0.00
11:56 am 11:56 Sunny 19 -7.2 6 -14.4 57 57 N 10 17 30.47 1032 10 16 0.00 0.00
12:56 pm 12:56 Sunny 21 -6.1 6 -14.4 52 52 N 13 20 30.44 1031 10 16 0.00 0.00
1:56 pm 13:56 Sunny 24 -4.4 7 -13.9 48 48 N 8 13 30.40 1030 10 16 0.00 0.00
2:56 pm 14:56 Sunny 25 -3.9 8 -13.3 48 48 NNW 10 17 30.40 1029 10 16 0.00 0.00
3:56 pm 15:56 Sunny 25 -3.9 8 -13.3 48 48 NW 5 7 30.40 1030 10 16 0.00 0.00
4:56 pm 16:56 Sunny 23 -5 8 -13.3 53 53 Calm 30.40 1029 10 16 0.00 0.00
5:56 pm 17:56 Clear 20 -6.7 8 -13.3 60 60 VRB 3 6 30.41 1030 10 16 0.00 0.00
6:56 pm 18:56 Clear 16 -8.9 8 -13.3 71 71 SSE 5 7 30.42 1030 10 16 0.00 0.00
7:56 pm 19:56 Clear 14 -10 7 -13.9 73 73 SSE 7 11 30.41 1030 10 16 0.00 0.00
8:56 pm 20:56 Clear 13 -10.6 7 -13.9 77 77 SSE 6 9 30.41 1030 10 16 0.00 0.00
9:56 pm 21:56 Clear 11 -11.7 5 -15 77 77 SSE 6 9 30.39 1029 10 16 0.00 0.00
10:56 pm 22:56 Clear 10 -12.2 5 -15 80 80 S 8 13 30.38 1029 10 16 0.00 0.00
11:56 pm 23:56 Clear 13 -10.6 7 -13.9 77 77 SSW 9 15 30.36 1028 10 16 0.00 0.00

Powered by AerisWeather